<?xml version="1.0" encoding="UTF-8" standalone="no" ?>
<gpx xmlns="http://www.topografix.com/GPX/1/1" xmlns:xsi="http://www.w3.org/2001/XMLSchema-instance" xsi:schemaLocation="http://www.topografix.com/GPX/1/1 http://www.topografix.com/GPX/1/1/gpx.xsd" version="1.1" creator="VisuGPX - https://www.visugpx.com">
  <metadata>
    <name>Castelnau de Guers - Pézenas</name>
    <desc><![CDATA[A tester rapidement]]></desc>
  </metadata>
  <trk>
    <name><![CDATA[track]]></name>
    <trkseg>
      <trkpt lat="43.43443" lon="3.44046">
        <ele>41</ele>
        <time>2011-12-23T21:42:34Z</time>
      </trkpt>
      <trkpt lat="43.43443" lon="3.44049">
        <ele>41</ele>
        <time>2011-12-23T21:42:34Z</time>
      </trkpt>
      <trkpt lat="43.43454" lon="3.4408">
        <ele>41</ele>
        <time>2011-12-23T21:42:34Z</time>
      </trkpt>
      <trkpt lat="43.43453" lon="3.44151">
        <ele>34</ele>
        <time>2011-12-23T21:42:34Z</time>
      </trkpt>
      <trkpt lat="43.43446" lon="3.44175">
        <ele>29</ele>
        <time>2011-12-23T21:42:34Z</time>
      </trkpt>
      <trkpt lat="43.43446" lon="3.44197">
        <ele>27</ele>
        <time>2011-12-23T21:42:34Z</time>
      </trkpt>
      <trkpt lat="43.43457" lon="3.44219">
        <ele>26</ele>
        <time>2011-12-23T21:42:34Z</time>
      </trkpt>
      <trkpt lat="43.43461" lon="3.4425">
        <ele>24</ele>
        <time>2011-12-23T21:42:34Z</time>
      </trkpt>
      <trkpt lat="43.4345" lon="3.44274">
        <ele>23</ele>
        <time>2011-12-23T21:42:34Z</time>
      </trkpt>
      <trkpt lat="43.43445" lon="3.44299">
        <ele>23</ele>
        <time>2011-12-23T21:42:34Z</time>
      </trkpt>
      <trkpt lat="43.43454" lon="3.44339">
        <ele>24</ele>
        <time>2011-12-23T21:42:34Z</time>
      </trkpt>
      <trkpt lat="43.43453" lon="3.44397">
        <ele>26</ele>
        <time>2011-12-23T21:42:34Z</time>
      </trkpt>
      <trkpt lat="43.43466" lon="3.44432">
        <ele>26</ele>
        <time>2011-12-23T21:42:34Z</time>
      </trkpt>
      <trkpt lat="43.43473" lon="3.44456">
        <ele>30</ele>
        <time>2011-12-23T21:42:34Z</time>
      </trkpt>
      <trkpt lat="43.43486" lon="3.44475">
        <ele>32</ele>
        <time>2011-12-23T21:42:34Z</time>
      </trkpt>
      <trkpt lat="43.43486" lon="3.44494">
        <ele>35</ele>
        <time>2011-12-23T21:42:34Z</time>
      </trkpt>
      <trkpt lat="43.43481" lon="3.44494">
        <ele>35</ele>
        <time>2011-12-23T21:42:34Z</time>
      </trkpt>
      <trkpt lat="43.43461" lon="3.44502">
        <ele>37</ele>
        <time>2011-12-23T21:42:34Z</time>
      </trkpt>
      <trkpt lat="43.43459" lon="3.44496">
        <ele>36</ele>
        <time>2011-12-23T21:42:34Z</time>
      </trkpt>
      <trkpt lat="43.43441" lon="3.44502">
        <ele>37</ele>
        <time>2011-12-23T21:42:34Z</time>
      </trkpt>
      <trkpt lat="43.43425" lon="3.44536">
        <ele>39</ele>
        <time>2011-12-23T21:42:34Z</time>
      </trkpt>
      <trkpt lat="43.43404" lon="3.44578">
        <ele>41</ele>
        <time>2011-12-23T21:42:34Z</time>
      </trkpt>
      <trkpt lat="43.4339" lon="3.44618">
        <ele>42</ele>
        <time>2011-12-23T21:42:34Z</time>
      </trkpt>
      <trkpt lat="43.43387" lon="3.44658">
        <ele>42</ele>
        <time>2011-12-23T21:42:34Z</time>
      </trkpt>
      <trkpt lat="43.43389" lon="3.44695">
        <ele>42</ele>
        <time>2011-12-23T21:42:34Z</time>
      </trkpt>
      <trkpt lat="43.43391" lon="3.44705">
        <ele>42</ele>
        <time>2011-12-23T21:42:34Z</time>
      </trkpt>
      <trkpt lat="43.43369" lon="3.44729">
        <ele>44</ele>
        <time>2011-12-23T21:42:34Z</time>
      </trkpt>
      <trkpt lat="43.43348" lon="3.44741">
        <ele>45</ele>
        <time>2011-12-23T21:42:34Z</time>
      </trkpt>
      <trkpt lat="43.43325" lon="3.44799">
        <ele>47</ele>
        <time>2011-12-23T21:42:34Z</time>
      </trkpt>
      <trkpt lat="43.43302" lon="3.44839">
        <ele>49</ele>
        <time>2011-12-23T21:42:34Z</time>
      </trkpt>
      <trkpt lat="43.43274" lon="3.44927">
        <ele>51</ele>
        <time>2011-12-23T21:42:34Z</time>
      </trkpt>
      <trkpt lat="43.43276" lon="3.44964">
        <ele>50</ele>
        <time>2011-12-23T21:42:34Z</time>
      </trkpt>
      <trkpt lat="43.43267" lon="3.45007">
        <ele>50</ele>
        <time>2011-12-23T21:42:34Z</time>
      </trkpt>
      <trkpt lat="43.43273" lon="3.45057">
        <ele>50</ele>
        <time>2011-12-23T21:42:34Z</time>
      </trkpt>
      <trkpt lat="43.43275" lon="3.45097">
        <ele>51</ele>
        <time>2011-12-23T21:42:34Z</time>
      </trkpt>
      <trkpt lat="43.43268" lon="3.45143">
        <ele>51</ele>
        <time>2011-12-23T21:42:34Z</time>
      </trkpt>
      <trkpt lat="43.43281" lon="3.45174">
        <ele>51</ele>
        <time>2011-12-23T21:42:34Z</time>
      </trkpt>
      <trkpt lat="43.43306" lon="3.45162">
        <ele>50</ele>
        <time>2011-12-23T21:42:34Z</time>
      </trkpt>
      <trkpt lat="43.43342" lon="3.4516">
        <ele>48</ele>
        <time>2011-12-23T21:42:34Z</time>
      </trkpt>
      <trkpt lat="43.43373" lon="3.45142">
        <ele>47</ele>
        <time>2011-12-23T21:42:34Z</time>
      </trkpt>
      <trkpt lat="43.43398" lon="3.45158">
        <ele>44</ele>
        <time>2011-12-23T21:42:34Z</time>
      </trkpt>
      <trkpt lat="43.43409" lon="3.45195">
        <ele>45</ele>
        <time>2011-12-23T21:42:34Z</time>
      </trkpt>
      <trkpt lat="43.4341" lon="3.45263">
        <ele>48</ele>
        <time>2011-12-23T21:42:34Z</time>
      </trkpt>
      <trkpt lat="43.43466" lon="3.45307">
        <ele>49</ele>
        <time>2011-12-23T21:42:34Z</time>
      </trkpt>
      <trkpt lat="43.43499" lon="3.45357">
        <ele>47</ele>
        <time>2011-12-23T21:42:34Z</time>
      </trkpt>
      <trkpt lat="43.43531" lon="3.45358">
        <ele>45</ele>
        <time>2011-12-23T21:42:34Z</time>
      </trkpt>
      <trkpt lat="43.43543" lon="3.45429">
        <ele>41</ele>
        <time>2011-12-23T21:42:34Z</time>
      </trkpt>
      <trkpt lat="43.43563" lon="3.45513">
        <ele>39</ele>
        <time>2011-12-23T21:42:34Z</time>
      </trkpt>
      <trkpt lat="43.43575" lon="3.45587">
        <ele>40</ele>
        <time>2011-12-23T21:42:34Z</time>
      </trkpt>
      <trkpt lat="43.43593" lon="3.456">
        <ele>40</ele>
        <time>2011-12-23T21:42:34Z</time>
      </trkpt>
      <trkpt lat="43.43617" lon="3.45668">
        <ele>40</ele>
        <time>2011-12-23T21:42:34Z</time>
      </trkpt>
      <trkpt lat="43.43639" lon="3.45715">
        <ele>39</ele>
        <time>2011-12-23T21:42:34Z</time>
      </trkpt>
      <trkpt lat="43.43634" lon="3.45752">
        <ele>39</ele>
        <time>2011-12-23T21:42:34Z</time>
      </trkpt>
      <trkpt lat="43.43629" lon="3.45813">
        <ele>39</ele>
        <time>2011-12-23T21:42:34Z</time>
      </trkpt>
      <trkpt lat="43.43613" lon="3.45862">
        <ele>39</ele>
        <time>2011-12-23T21:42:34Z</time>
      </trkpt>
      <trkpt lat="43.4357" lon="3.45883">
        <ele>40</ele>
        <time>2011-12-23T21:42:34Z</time>
      </trkpt>
      <trkpt lat="43.43547" lon="3.45901">
        <ele>42</ele>
        <time>2011-12-23T21:42:34Z</time>
      </trkpt>
      <trkpt lat="43.43516" lon="3.45903">
        <ele>45</ele>
        <time>2011-12-23T21:42:34Z</time>
      </trkpt>
      <trkpt lat="43.43498" lon="3.45903">
        <ele>47</ele>
        <time>2011-12-23T21:42:34Z</time>
      </trkpt>
      <trkpt lat="43.43448" lon="3.45936">
        <ele>53</ele>
        <time>2011-12-23T21:42:34Z</time>
      </trkpt>
      <trkpt lat="43.43437" lon="3.45957">
        <ele>56</ele>
        <time>2011-12-23T21:42:34Z</time>
      </trkpt>
      <trkpt lat="43.4344" lon="3.46053">
        <ele>61</ele>
        <time>2011-12-23T21:42:34Z</time>
      </trkpt>
      <trkpt lat="43.43441" lon="3.46155">
        <ele>62</ele>
        <time>2011-12-23T21:42:34Z</time>
      </trkpt>
      <trkpt lat="43.43439" lon="3.46207">
        <ele>61</ele>
        <time>2011-12-23T21:42:34Z</time>
      </trkpt>
      <trkpt lat="43.43434" lon="3.46247">
        <ele>61</ele>
        <time>2011-12-23T21:42:34Z</time>
      </trkpt>
      <trkpt lat="43.43421" lon="3.46355">
        <ele>60</ele>
        <time>2011-12-23T21:42:34Z</time>
      </trkpt>
      <trkpt lat="43.43392" lon="3.46422">
        <ele>64</ele>
        <time>2011-12-23T21:42:34Z</time>
      </trkpt>
      <trkpt lat="43.43378" lon="3.46465">
        <ele>65</ele>
        <time>2011-12-23T21:42:34Z</time>
      </trkpt>
      <trkpt lat="43.4335" lon="3.46523">
        <ele>61</ele>
        <time>2011-12-23T21:42:34Z</time>
      </trkpt>
      <trkpt lat="43.43341" lon="3.46541">
        <ele>60</ele>
        <time>2011-12-23T21:42:34Z</time>
      </trkpt>
      <trkpt lat="43.43357" lon="3.46545">
        <ele>59</ele>
        <time>2011-12-23T21:42:34Z</time>
      </trkpt>
      <trkpt lat="43.43413" lon="3.4649">
        <ele>60</ele>
        <time>2011-12-23T21:42:34Z</time>
      </trkpt>
      <trkpt lat="43.43442" lon="3.46519">
        <ele>56</ele>
        <time>2011-12-23T21:42:34Z</time>
      </trkpt>
      <trkpt lat="43.43454" lon="3.4663">
        <ele>52</ele>
        <time>2011-12-23T21:42:34Z</time>
      </trkpt>
      <trkpt lat="43.4346" lon="3.46759">
        <ele>50</ele>
        <time>2011-12-23T21:42:34Z</time>
      </trkpt>
      <trkpt lat="43.43484" lon="3.46809">
        <ele>50</ele>
        <time>2011-12-23T21:42:34Z</time>
      </trkpt>
      <trkpt lat="43.43481" lon="3.46846">
        <ele>51</ele>
        <time>2011-12-23T21:42:34Z</time>
      </trkpt>
      <trkpt lat="43.43481" lon="3.4692">
        <ele>54</ele>
        <time>2011-12-23T21:42:34Z</time>
      </trkpt>
      <trkpt lat="43.43467" lon="3.46948">
        <ele>57</ele>
        <time>2011-12-23T21:42:34Z</time>
      </trkpt>
      <trkpt lat="43.43471" lon="3.46951">
        <ele>57</ele>
        <time>2011-12-23T21:42:34Z</time>
      </trkpt>
      <trkpt lat="43.4341" lon="3.47024">
        <ele>60</ele>
        <time>2011-12-23T21:42:34Z</time>
      </trkpt>
      <trkpt lat="43.43485" lon="3.46942">
        <ele>56</ele>
        <time>2011-12-23T21:42:34Z</time>
      </trkpt>
      <trkpt lat="43.4352" lon="3.4698">
        <ele>57</ele>
        <time>2011-12-23T21:42:34Z</time>
      </trkpt>
      <trkpt lat="43.43549" lon="3.47032">
        <ele>58</ele>
        <time>2011-12-23T21:42:34Z</time>
      </trkpt>
      <trkpt lat="43.43548" lon="3.47137">
        <ele>60</ele>
        <time>2011-12-23T21:42:34Z</time>
      </trkpt>
      <trkpt lat="43.4355" lon="3.47153">
        <ele>60</ele>
        <time>2011-12-23T21:42:34Z</time>
      </trkpt>
      <trkpt lat="43.43534" lon="3.47359">
        <ele>59</ele>
        <time>2011-12-23T21:42:34Z</time>
      </trkpt>
      <trkpt lat="43.43556" lon="3.47409">
        <ele>58</ele>
        <time>2011-12-23T21:42:34Z</time>
      </trkpt>
      <trkpt lat="43.43574" lon="3.47458">
        <ele>58</ele>
        <time>2011-12-23T21:42:34Z</time>
      </trkpt>
      <trkpt lat="43.43664" lon="3.47479">
        <ele>60</ele>
        <time>2011-12-23T21:42:34Z</time>
      </trkpt>
      <trkpt lat="43.43681" lon="3.4751">
        <ele>61</ele>
        <time>2011-12-23T21:42:34Z</time>
      </trkpt>
      <trkpt lat="43.43808" lon="3.47599">
        <ele>68</ele>
        <time>2011-12-23T21:42:34Z</time>
      </trkpt>
      <trkpt lat="43.43851" lon="3.47627">
        <ele>67</ele>
        <time>2011-12-23T21:42:34Z</time>
      </trkpt>
      <trkpt lat="43.43882" lon="3.47597">
        <ele>65</ele>
        <time>2011-12-23T21:42:34Z</time>
      </trkpt>
      <trkpt lat="43.439" lon="3.47594">
        <ele>65</ele>
        <time>2011-12-23T21:42:34Z</time>
      </trkpt>
      <trkpt lat="43.43915" lon="3.47697">
        <ele>68</ele>
        <time>2011-12-23T21:42:34Z</time>
      </trkpt>
      <trkpt lat="43.43942" lon="3.47728">
        <ele>70</ele>
        <time>2011-12-23T21:42:34Z</time>
      </trkpt>
      <trkpt lat="43.43953" lon="3.47728">
        <ele>70</ele>
        <time>2011-12-23T21:42:34Z</time>
      </trkpt>
      <trkpt lat="43.43959" lon="3.47759">
        <ele>73</ele>
        <time>2011-12-23T21:42:34Z</time>
      </trkpt>
      <trkpt lat="43.44081" lon="3.47728">
        <ele>73</ele>
        <time>2011-12-23T21:42:34Z</time>
      </trkpt>
      <trkpt lat="43.4411" lon="3.47737">
        <ele>75</ele>
        <time>2011-12-23T21:42:34Z</time>
      </trkpt>
      <trkpt lat="43.44119" lon="3.47747">
        <ele>75</ele>
        <time>2011-12-23T21:42:34Z</time>
      </trkpt>
      <trkpt lat="43.44137" lon="3.47735">
        <ele>76</ele>
        <time>2011-12-23T21:42:34Z</time>
      </trkpt>
      <trkpt lat="43.44129" lon="3.47673">
        <ele>75</ele>
        <time>2011-12-23T21:42:34Z</time>
      </trkpt>
      <trkpt lat="43.44141" lon="3.47621">
        <ele>77</ele>
        <time>2011-12-23T21:42:34Z</time>
      </trkpt>
      <trkpt lat="43.44161" lon="3.47587">
        <ele>80</ele>
        <time>2011-12-23T21:42:34Z</time>
      </trkpt>
      <trkpt lat="43.44173" lon="3.47551">
        <ele>78</ele>
        <time>2011-12-23T21:42:34Z</time>
      </trkpt>
      <trkpt lat="43.44207" lon="3.47496">
        <ele>80</ele>
        <time>2011-12-23T21:42:34Z</time>
      </trkpt>
      <trkpt lat="43.44205" lon="3.4748">
        <ele>79</ele>
        <time>2011-12-23T21:42:34Z</time>
      </trkpt>
      <trkpt lat="43.4423" lon="3.47444">
        <ele>80</ele>
        <time>2011-12-23T21:42:34Z</time>
      </trkpt>
      <trkpt lat="43.44206" lon="3.47422">
        <ele>78</ele>
        <time>2011-12-23T21:42:34Z</time>
      </trkpt>
      <trkpt lat="43.44201" lon="3.474">
        <ele>77</ele>
        <time>2011-12-23T21:42:34Z</time>
      </trkpt>
      <trkpt lat="43.44213" lon="3.47373">
        <ele>78</ele>
        <time>2011-12-23T21:42:34Z</time>
      </trkpt>
      <trkpt lat="43.44239" lon="3.47429">
        <ele>81</ele>
        <time>2011-12-23T21:42:34Z</time>
      </trkpt>
      <trkpt lat="43.44291" lon="3.4743">
        <ele>82</ele>
        <time>2011-12-23T21:42:34Z</time>
      </trkpt>
      <trkpt lat="43.44313" lon="3.47461">
        <ele>83</ele>
        <time>2011-12-23T21:42:34Z</time>
      </trkpt>
      <trkpt lat="43.44326" lon="3.4752">
        <ele>82</ele>
        <time>2011-12-23T21:42:34Z</time>
      </trkpt>
      <trkpt lat="43.44364" lon="3.47493">
        <ele>83</ele>
        <time>2011-12-23T21:42:34Z</time>
      </trkpt>
      <trkpt lat="43.4441" lon="3.4745">
        <ele>82</ele>
        <time>2011-12-23T21:42:34Z</time>
      </trkpt>
      <trkpt lat="43.4441" lon="3.47392">
        <ele>83</ele>
        <time>2011-12-23T21:42:34Z</time>
      </trkpt>
      <trkpt lat="43.44413" lon="3.47373">
        <ele>83</ele>
        <time>2011-12-23T21:42:34Z</time>
      </trkpt>
      <trkpt lat="43.44451" lon="3.47368">
        <ele>81</ele>
        <time>2011-12-23T21:42:34Z</time>
      </trkpt>
      <trkpt lat="43.44489" lon="3.47375">
        <ele>79</ele>
        <time>2011-12-23T21:42:34Z</time>
      </trkpt>
      <trkpt lat="43.44528" lon="3.47323">
        <ele>81</ele>
        <time>2011-12-23T21:42:34Z</time>
      </trkpt>
      <trkpt lat="43.44528" lon="3.47283">
        <ele>84</ele>
        <time>2011-12-23T21:42:34Z</time>
      </trkpt>
      <trkpt lat="43.44529" lon="3.47255">
        <ele>85</ele>
        <time>2011-12-23T21:42:34Z</time>
      </trkpt>
      <trkpt lat="43.44522" lon="3.47243">
        <ele>85</ele>
        <time>2011-12-23T21:42:34Z</time>
      </trkpt>
      <trkpt lat="43.44532" lon="3.47172">
        <ele>86</ele>
        <time>2011-12-23T21:42:34Z</time>
      </trkpt>
      <trkpt lat="43.44514" lon="3.47113">
        <ele>82</ele>
        <time>2011-12-23T21:42:34Z</time>
      </trkpt>
      <trkpt lat="43.44501" lon="3.47085">
        <ele>80</ele>
        <time>2011-12-23T21:42:34Z</time>
      </trkpt>
      <trkpt lat="43.44524" lon="3.47033">
        <ele>82</ele>
        <time>2011-12-23T21:42:34Z</time>
      </trkpt>
      <trkpt lat="43.44502" lon="3.46977">
        <ele>82</ele>
        <time>2011-12-23T21:42:34Z</time>
      </trkpt>
      <trkpt lat="43.4449" lon="3.46906">
        <ele>82</ele>
        <time>2011-12-23T21:42:34Z</time>
      </trkpt>
      <trkpt lat="43.44452" lon="3.46841">
        <ele>77</ele>
        <time>2011-12-23T21:42:34Z</time>
      </trkpt>
      <trkpt lat="43.44435" lon="3.46776">
        <ele>77</ele>
        <time>2011-12-23T21:42:34Z</time>
      </trkpt>
      <trkpt lat="43.44427" lon="3.46714">
        <ele>80</ele>
        <time>2011-12-23T21:42:34Z</time>
      </trkpt>
      <trkpt lat="43.4445" lon="3.46634">
        <ele>85</ele>
        <time>2011-12-23T21:42:34Z</time>
      </trkpt>
      <trkpt lat="43.44473" lon="3.46579">
        <ele>84</ele>
        <time>2011-12-23T21:42:34Z</time>
      </trkpt>
      <trkpt lat="43.44489" lon="3.46536">
        <ele>82</ele>
        <time>2011-12-23T21:42:34Z</time>
      </trkpt>
      <trkpt lat="43.44487" lon="3.46514">
        <ele>80</ele>
        <time>2011-12-23T21:42:34Z</time>
      </trkpt>
      <trkpt lat="43.44463" lon="3.46483">
        <ele>77</ele>
        <time>2011-12-23T21:42:34Z</time>
      </trkpt>
      <trkpt lat="43.44434" lon="3.46455">
        <ele>76</ele>
        <time>2011-12-23T21:42:34Z</time>
      </trkpt>
      <trkpt lat="43.44428" lon="3.46356">
        <ele>78</ele>
        <time>2011-12-23T21:42:34Z</time>
      </trkpt>
      <trkpt lat="43.44397" lon="3.46291">
        <ele>73</ele>
        <time>2011-12-23T21:42:34Z</time>
      </trkpt>
      <trkpt lat="43.44371" lon="3.46247">
        <ele>70</ele>
        <time>2011-12-23T21:42:34Z</time>
      </trkpt>
      <trkpt lat="43.44378" lon="3.46198">
        <ele>73</ele>
        <time>2011-12-23T21:42:34Z</time>
      </trkpt>
      <trkpt lat="43.44347" lon="3.46126">
        <ele>71</ele>
        <time>2011-12-23T21:42:34Z</time>
      </trkpt>
      <trkpt lat="43.44348" lon="3.46102">
        <ele>71</ele>
        <time>2011-12-23T21:42:34Z</time>
      </trkpt>
      <trkpt lat="43.44279" lon="3.46029">
        <ele>64</ele>
        <time>2011-12-23T21:42:34Z</time>
      </trkpt>
      <trkpt lat="43.44214" lon="3.45963">
        <ele>60</ele>
        <time>2011-12-23T21:42:34Z</time>
      </trkpt>
      <trkpt lat="43.44176" lon="3.45929">
        <ele>60</ele>
        <time>2011-12-23T21:42:34Z</time>
      </trkpt>
      <trkpt lat="43.44136" lon="3.45869">
        <ele>59</ele>
        <time>2011-12-23T21:42:34Z</time>
      </trkpt>
      <trkpt lat="43.4411" lon="3.45829">
        <ele>57</ele>
        <time>2011-12-23T21:42:34Z</time>
      </trkpt>
      <trkpt lat="43.44097" lon="3.45785">
        <ele>56</ele>
        <time>2011-12-23T21:42:34Z</time>
      </trkpt>
      <trkpt lat="43.44062" lon="3.45711">
        <ele>54</ele>
        <time>2011-12-23T21:42:34Z</time>
      </trkpt>
      <trkpt lat="43.44069" lon="3.45667">
        <ele>57</ele>
        <time>2011-12-23T21:42:34Z</time>
      </trkpt>
      <trkpt lat="43.44096" lon="3.45613">
        <ele>58</ele>
        <time>2011-12-23T21:42:34Z</time>
      </trkpt>
      <trkpt lat="43.44133" lon="3.45542">
        <ele>51</ele>
        <time>2011-12-23T21:42:34Z</time>
      </trkpt>
      <trkpt lat="43.44152" lon="3.45493">
        <ele>45</ele>
        <time>2011-12-23T21:42:34Z</time>
      </trkpt>
      <trkpt lat="43.44156" lon="3.45478">
        <ele>44</ele>
        <time>2011-12-23T21:42:34Z</time>
      </trkpt>
      <trkpt lat="43.44179" lon="3.45448">
        <ele>44</ele>
        <time>2011-12-23T21:42:34Z</time>
      </trkpt>
      <trkpt lat="43.44177" lon="3.45414">
        <ele>44</ele>
        <time>2011-12-23T21:42:34Z</time>
      </trkpt>
      <trkpt lat="43.44218" lon="3.45331">
        <ele>52</ele>
        <time>2011-12-23T21:42:34Z</time>
      </trkpt>
      <trkpt lat="43.44278" lon="3.45237">
        <ele>57</ele>
        <time>2011-12-23T21:42:34Z</time>
      </trkpt>
      <trkpt lat="43.44294" lon="3.45188">
        <ele>58</ele>
        <time>2011-12-23T21:42:34Z</time>
      </trkpt>
      <trkpt lat="43.44355" lon="3.45189">
        <ele>61</ele>
        <time>2011-12-23T21:42:34Z</time>
      </trkpt>
      <trkpt lat="43.44407" lon="3.45159">
        <ele>63</ele>
        <time>2011-12-23T21:42:34Z</time>
      </trkpt>
      <trkpt lat="43.44441" lon="3.45126">
        <ele>64</ele>
        <time>2011-12-23T21:42:34Z</time>
      </trkpt>
      <trkpt lat="43.44511" lon="3.4509">
        <ele>63</ele>
        <time>2011-12-23T21:42:34Z</time>
      </trkpt>
      <trkpt lat="43.44551" lon="3.45106">
        <ele>59</ele>
        <time>2011-12-23T21:42:34Z</time>
      </trkpt>
      <trkpt lat="43.44605" lon="3.45117">
        <ele>54</ele>
        <time>2011-12-23T21:42:34Z</time>
      </trkpt>
      <trkpt lat="43.44634" lon="3.4512">
        <ele>51</ele>
        <time>2011-12-23T21:42:34Z</time>
      </trkpt>
      <trkpt lat="43.44652" lon="3.4509">
        <ele>50</ele>
        <time>2011-12-23T21:42:34Z</time>
      </trkpt>
      <trkpt lat="43.44653" lon="3.4505">
        <ele>51</ele>
        <time>2011-12-23T21:42:34Z</time>
      </trkpt>
      <trkpt lat="43.44637" lon="3.45028">
        <ele>52</ele>
        <time>2011-12-23T21:42:34Z</time>
      </trkpt>
      <trkpt lat="43.44679" lon="3.44949">
        <ele>52</ele>
        <time>2011-12-23T21:42:34Z</time>
      </trkpt>
      <trkpt lat="43.44672" lon="3.4489">
        <ele>54</ele>
        <time>2011-12-23T21:42:34Z</time>
      </trkpt>
      <trkpt lat="43.44712" lon="3.44792">
        <ele>55</ele>
        <time>2011-12-23T21:42:34Z</time>
      </trkpt>
      <trkpt lat="43.44712" lon="3.44758">
        <ele>56</ele>
        <time>2011-12-23T21:42:34Z</time>
      </trkpt>
      <trkpt lat="43.44712" lon="3.44749">
        <ele>57</ele>
        <time>2011-12-23T21:42:34Z</time>
      </trkpt>
      <trkpt lat="43.44733" lon="3.44712">
        <ele>59</ele>
        <time>2011-12-23T21:42:34Z</time>
      </trkpt>
      <trkpt lat="43.44742" lon="3.44697">
        <ele>59</ele>
        <time>2011-12-23T21:42:34Z</time>
      </trkpt>
      <trkpt lat="43.44756" lon="3.4466">
        <ele>60</ele>
        <time>2011-12-23T21:42:34Z</time>
      </trkpt>
      <trkpt lat="43.44767" lon="3.44633">
        <ele>60</ele>
        <time>2011-12-23T21:42:34Z</time>
      </trkpt>
      <trkpt lat="43.44749" lon="3.44608">
        <ele>61</ele>
        <time>2011-12-23T21:42:34Z</time>
      </trkpt>
      <trkpt lat="43.44752" lon="3.44577">
        <ele>61</ele>
        <time>2011-12-23T21:42:34Z</time>
      </trkpt>
      <trkpt lat="43.44752" lon="3.44617">
        <ele>61</ele>
        <time>2011-12-23T21:42:34Z</time>
      </trkpt>
      <trkpt lat="43.44767" lon="3.44648">
        <ele>59</ele>
        <time>2011-12-23T21:42:34Z</time>
      </trkpt>
      <trkpt lat="43.44724" lon="3.44727">
        <ele>58</ele>
        <time>2011-12-23T21:42:34Z</time>
      </trkpt>
      <trkpt lat="43.4471" lon="3.44764">
        <ele>56</ele>
        <time>2011-12-23T21:42:34Z</time>
      </trkpt>
      <trkpt lat="43.44709" lon="3.44792">
        <ele>55</ele>
        <time>2011-12-23T21:42:34Z</time>
      </trkpt>
      <trkpt lat="43.44679" lon="3.44878">
        <ele>54</ele>
        <time>2011-12-23T21:42:34Z</time>
      </trkpt>
      <trkpt lat="43.44674" lon="3.44939">
        <ele>52</ele>
        <time>2011-12-23T21:42:34Z</time>
      </trkpt>
      <trkpt lat="43.44644" lon="3.45025">
        <ele>52</ele>
        <time>2011-12-23T21:42:34Z</time>
      </trkpt>
      <trkpt lat="43.44655" lon="3.45053">
        <ele>50</ele>
        <time>2011-12-23T21:42:34Z</time>
      </trkpt>
      <trkpt lat="43.4465" lon="3.45093">
        <ele>50</ele>
        <time>2011-12-23T21:42:34Z</time>
      </trkpt>
      <trkpt lat="43.4466" lon="3.45179">
        <ele>50</ele>
        <time>2011-12-23T21:42:34Z</time>
      </trkpt>
      <trkpt lat="43.44682" lon="3.45238">
        <ele>51</ele>
        <time>2011-12-23T21:42:34Z</time>
      </trkpt>
      <trkpt lat="43.44702" lon="3.45322">
        <ele>52</ele>
        <time>2011-12-23T21:42:34Z</time>
      </trkpt>
      <trkpt lat="43.44755" lon="3.45339">
        <ele>49</ele>
        <time>2011-12-23T21:42:34Z</time>
      </trkpt>
      <trkpt lat="43.4484" lon="3.45368">
        <ele>47</ele>
        <time>2011-12-23T21:42:34Z</time>
      </trkpt>
      <trkpt lat="43.44988" lon="3.45402">
        <ele>56</ele>
        <time>2011-12-23T21:42:34Z</time>
      </trkpt>
      <trkpt lat="43.45018" lon="3.45412">
        <ele>58</ele>
        <time>2011-12-23T21:42:34Z</time>
      </trkpt>
      <trkpt lat="43.45091" lon="3.45438">
        <ele>58</ele>
        <time>2011-12-23T21:42:34Z</time>
      </trkpt>
      <trkpt lat="43.45177" lon="3.45439">
        <ele>53</ele>
        <time>2011-12-23T21:42:34Z</time>
      </trkpt>
      <trkpt lat="43.45301" lon="3.45408">
        <ele>45</ele>
        <time>2011-12-23T21:42:34Z</time>
      </trkpt>
      <trkpt lat="43.45327" lon="3.45436">
        <ele>45</ele>
        <time>2011-12-23T21:42:34Z</time>
      </trkpt>
      <trkpt lat="43.45413" lon="3.45422">
        <ele>49</ele>
        <time>2011-12-23T21:42:34Z</time>
      </trkpt>
      <trkpt lat="43.45484" lon="3.45473">
        <ele>51</ele>
        <time>2011-12-23T21:42:34Z</time>
      </trkpt>
      <trkpt lat="43.45506" lon="3.45507">
        <ele>55</ele>
        <time>2011-12-23T21:42:34Z</time>
      </trkpt>
      <trkpt lat="43.45621" lon="3.4551">
        <ele>61</ele>
        <time>2011-12-23T21:42:34Z</time>
      </trkpt>
      <trkpt lat="43.45628" lon="3.4551">
        <ele>61</ele>
        <time>2011-12-23T21:42:34Z</time>
      </trkpt>
      <trkpt lat="43.45628" lon="3.45473">
        <ele>61</ele>
        <time>2011-12-23T21:42:34Z</time>
      </trkpt>
      <trkpt lat="43.45631" lon="3.45417">
        <ele>60</ele>
        <time>2011-12-23T21:42:34Z</time>
      </trkpt>
      <trkpt lat="43.45634" lon="3.45374">
        <ele>58</ele>
        <time>2011-12-23T21:42:34Z</time>
      </trkpt>
      <trkpt lat="43.45639" lon="3.45319">
        <ele>54</ele>
        <time>2011-12-23T21:42:34Z</time>
      </trkpt>
      <trkpt lat="43.45666" lon="3.45279">
        <ele>50</ele>
        <time>2011-12-23T21:42:34Z</time>
      </trkpt>
      <trkpt lat="43.45673" lon="3.45255">
        <ele>49</ele>
        <time>2011-12-23T21:42:34Z</time>
      </trkpt>
      <trkpt lat="43.45676" lon="3.45168">
        <ele>45</ele>
        <time>2011-12-23T21:42:34Z</time>
      </trkpt>
      <trkpt lat="43.45706" lon="3.45101">
        <ele>41</ele>
        <time>2011-12-23T21:42:34Z</time>
      </trkpt>
      <trkpt lat="43.45706" lon="3.45076">
        <ele>41</ele>
        <time>2011-12-23T21:42:34Z</time>
      </trkpt>
      <trkpt lat="43.45723" lon="3.45018">
        <ele>39</ele>
        <time>2011-12-23T21:42:34Z</time>
      </trkpt>
      <trkpt lat="43.45723" lon="3.44956">
        <ele>37</ele>
        <time>2011-12-23T21:42:34Z</time>
      </trkpt>
      <trkpt lat="43.45764" lon="3.44948">
        <ele>35</ele>
        <time>2011-12-23T21:42:34Z</time>
      </trkpt>
      <trkpt lat="43.45784" lon="3.44927">
        <ele>32</ele>
        <time>2011-12-23T21:42:34Z</time>
      </trkpt>
      <trkpt lat="43.45823" lon="3.44915">
        <ele>28</ele>
        <time>2011-12-23T21:42:34Z</time>
      </trkpt>
      <trkpt lat="43.45855" lon="3.44842">
        <ele>23</ele>
        <time>2011-12-23T21:42:34Z</time>
      </trkpt>
      <trkpt lat="43.45862" lon="3.44814">
        <ele>21</ele>
        <time>2011-12-23T21:42:34Z</time>
      </trkpt>
      <trkpt lat="43.45878" lon="3.44808">
        <ele>20</ele>
        <time>2011-12-23T21:42:34Z</time>
      </trkpt>
      <trkpt lat="43.45884" lon="3.44824">
        <ele>20</ele>
        <time>2011-12-23T21:42:34Z</time>
      </trkpt>
      <trkpt lat="43.45873" lon="3.44855">
        <ele>22</ele>
        <time>2011-12-23T21:42:34Z</time>
      </trkpt>
      <trkpt lat="43.45882" lon="3.44861">
        <ele>22</ele>
        <time>2011-12-23T21:42:34Z</time>
      </trkpt>
      <trkpt lat="43.45911" lon="3.44828">
        <ele>19</ele>
        <time>2011-12-23T21:42:34Z</time>
      </trkpt>
      <trkpt lat="43.45916" lon="3.44791">
        <ele>18</ele>
        <time>2011-12-23T21:42:34Z</time>
      </trkpt>
      <trkpt lat="43.45916" lon="3.44775">
        <ele>18</ele>
        <time>2011-12-23T21:42:34Z</time>
      </trkpt>
      <trkpt lat="43.45831" lon="3.4474">
        <ele>19</ele>
        <time>2011-12-23T21:42:34Z</time>
      </trkpt>
      <trkpt lat="43.45797" lon="3.44739">
        <ele>20</ele>
        <time>2011-12-23T21:42:34Z</time>
      </trkpt>
      <trkpt lat="43.45735" lon="3.44732">
        <ele>17</ele>
        <time>2011-12-23T21:42:34Z</time>
      </trkpt>
      <trkpt lat="43.45708" lon="3.44719">
        <ele>16</ele>
        <time>2011-12-23T21:42:34Z</time>
      </trkpt>
      <trkpt lat="43.45686" lon="3.44694">
        <ele>16</ele>
        <time>2011-12-23T21:42:34Z</time>
      </trkpt>
      <trkpt lat="43.45616" lon="3.44671">
        <ele>20</ele>
        <time>2011-12-23T21:42:34Z</time>
      </trkpt>
      <trkpt lat="43.45571" lon="3.44667">
        <ele>23</ele>
        <time>2011-12-23T21:42:34Z</time>
      </trkpt>
      <trkpt lat="43.45544" lon="3.44645">
        <ele>22</ele>
        <time>2011-12-23T21:42:34Z</time>
      </trkpt>
      <trkpt lat="43.45545" lon="3.44598">
        <ele>14</ele>
        <time>2011-12-23T21:42:34Z</time>
      </trkpt>
      <trkpt lat="43.45553" lon="3.44654">
        <ele>23</ele>
        <time>2011-12-23T21:42:34Z</time>
      </trkpt>
      <trkpt lat="43.45654" lon="3.44684">
        <ele>18</ele>
        <time>2011-12-23T21:42:34Z</time>
      </trkpt>
      <trkpt lat="43.45712" lon="3.44716">
        <ele>15</ele>
        <time>2011-12-23T21:42:34Z</time>
      </trkpt>
      <trkpt lat="43.45708" lon="3.44728">
        <ele>16</ele>
        <time>2011-12-23T21:42:34Z</time>
      </trkpt>
      <trkpt lat="43.45703" lon="3.44737">
        <ele>16</ele>
        <time>2011-12-23T21:42:34Z</time>
      </trkpt>
      <trkpt lat="43.45703" lon="3.44786">
        <ele>18</ele>
        <time>2011-12-23T21:42:34Z</time>
      </trkpt>
      <trkpt lat="43.45691" lon="3.44826">
        <ele>20</ele>
        <time>2011-12-23T21:42:34Z</time>
      </trkpt>
      <trkpt lat="43.45652" lon="3.44859">
        <ele>20</ele>
        <time>2011-12-23T21:42:34Z</time>
      </trkpt>
      <trkpt lat="43.45619" lon="3.44847">
        <ele>20</ele>
        <time>2011-12-23T21:42:34Z</time>
      </trkpt>
      <trkpt lat="43.45599" lon="3.44846">
        <ele>22</ele>
        <time>2011-12-23T21:42:34Z</time>
      </trkpt>
      <trkpt lat="43.45631" lon="3.44791">
        <ele>22</ele>
        <time>2011-12-23T21:42:34Z</time>
      </trkpt>
      <trkpt lat="43.45604" lon="3.44732">
        <ele>28</ele>
        <time>2011-12-23T21:42:34Z</time>
      </trkpt>
      <trkpt lat="43.45535" lon="3.44725">
        <ele>34</ele>
        <time>2011-12-23T21:42:34Z</time>
      </trkpt>
      <trkpt lat="43.45481" lon="3.4468">
        <ele>39</ele>
        <time>2011-12-23T21:42:34Z</time>
      </trkpt>
      <trkpt lat="43.45414" lon="3.44657">
        <ele>43</ele>
        <time>2011-12-23T21:42:34Z</time>
      </trkpt>
      <trkpt lat="43.4539" lon="3.44635">
        <ele>37</ele>
        <time>2011-12-23T21:42:34Z</time>
      </trkpt>
      <trkpt lat="43.45359" lon="3.44552">
        <ele>20</ele>
        <time>2011-12-23T21:42:34Z</time>
      </trkpt>
      <trkpt lat="43.45319" lon="3.44495">
        <ele>14</ele>
        <time>2011-12-23T21:42:34Z</time>
      </trkpt>
      <trkpt lat="43.45216" lon="3.44475">
        <ele>19</ele>
        <time>2011-12-23T21:42:34Z</time>
      </trkpt>
      <trkpt lat="43.45162" lon="3.44486">
        <ele>19</ele>
        <time>2011-12-23T21:42:34Z</time>
      </trkpt>
      <trkpt lat="43.45137" lon="3.44489">
        <ele>17</ele>
        <time>2011-12-23T21:42:34Z</time>
      </trkpt>
      <trkpt lat="43.4509" lon="3.44451">
        <ele>15</ele>
        <time>2011-12-23T21:42:34Z</time>
      </trkpt>
      <trkpt lat="43.45035" lon="3.4441">
        <ele>17</ele>
        <time>2011-12-23T21:42:34Z</time>
      </trkpt>
      <trkpt lat="43.44966" lon="3.44343">
        <ele>17</ele>
        <time>2011-12-23T21:42:34Z</time>
      </trkpt>
      <trkpt lat="43.44917" lon="3.44281">
        <ele>16</ele>
        <time>2011-12-23T21:42:34Z</time>
      </trkpt>
      <trkpt lat="43.4487" lon="3.44228">
        <ele>15</ele>
        <time>2011-12-23T21:42:34Z</time>
      </trkpt>
      <trkpt lat="43.4483" lon="3.44184">
        <ele>15</ele>
        <time>2011-12-23T21:42:34Z</time>
      </trkpt>
      <trkpt lat="43.44795" lon="3.44158">
        <ele>16</ele>
        <time>2011-12-23T21:42:34Z</time>
      </trkpt>
      <trkpt lat="43.44705" lon="3.44098">
        <ele>18</ele>
        <time>2011-12-23T21:42:34Z</time>
      </trkpt>
      <trkpt lat="43.44638" lon="3.44078">
        <ele>16</ele>
        <time>2011-12-23T21:42:34Z</time>
      </trkpt>
      <trkpt lat="43.44618" lon="3.44078">
        <ele>16</ele>
        <time>2011-12-23T21:42:34Z</time>
      </trkpt>
      <trkpt lat="43.44552" lon="3.4411">
        <ele>17</ele>
        <time>2011-12-23T21:42:34Z</time>
      </trkpt>
      <trkpt lat="43.44512" lon="3.4414">
        <ele>19</ele>
        <time>2011-12-23T21:42:34Z</time>
      </trkpt>
      <trkpt lat="43.44495" lon="3.44205">
        <ele>22</ele>
        <time>2011-12-23T21:42:34Z</time>
      </trkpt>
      <trkpt lat="43.44487" lon="3.44316">
        <ele>29</ele>
        <time>2011-12-23T21:42:34Z</time>
      </trkpt>
      <trkpt lat="43.4446" lon="3.44309">
        <ele>25</ele>
        <time>2011-12-23T21:42:34Z</time>
      </trkpt>
      <trkpt lat="43.44442" lon="3.44306">
        <ele>23</ele>
        <time>2011-12-23T21:42:34Z</time>
      </trkpt>
      <trkpt lat="43.44382" lon="3.44323">
        <ele>18</ele>
        <time>2011-12-23T21:42:34Z</time>
      </trkpt>
      <trkpt lat="43.44321" lon="3.44328">
        <ele>20</ele>
        <time>2011-12-23T21:42:34Z</time>
      </trkpt>
      <trkpt lat="43.44292" lon="3.44321">
        <ele>23</ele>
        <time>2011-12-23T21:42:34Z</time>
      </trkpt>
      <trkpt lat="43.44247" lon="3.44283">
        <ele>27</ele>
        <time>2011-12-23T21:42:34Z</time>
      </trkpt>
      <trkpt lat="43.44196" lon="3.44267">
        <ele>29</ele>
        <time>2011-12-23T21:42:34Z</time>
      </trkpt>
      <trkpt lat="43.44142" lon="3.44235">
        <ele>29</ele>
        <time>2011-12-23T21:42:34Z</time>
      </trkpt>
      <trkpt lat="43.44104" lon="3.44203">
        <ele>27</ele>
        <time>2011-12-23T21:42:34Z</time>
      </trkpt>
      <trkpt lat="43.44019" lon="3.44186">
        <ele>29</ele>
        <time>2011-12-23T21:42:34Z</time>
      </trkpt>
      <trkpt lat="43.44003" lon="3.44177">
        <ele>29</ele>
        <time>2011-12-23T21:42:34Z</time>
      </trkpt>
      <trkpt lat="43.43961" lon="3.44158">
        <ele>32</ele>
        <time>2011-12-23T21:42:34Z</time>
      </trkpt>
      <trkpt lat="43.43916" lon="3.44163">
        <ele>39</ele>
        <time>2011-12-23T21:42:34Z</time>
      </trkpt>
      <trkpt lat="43.43873" lon="3.44159">
        <ele>41</ele>
        <time>2011-12-23T21:42:34Z</time>
      </trkpt>
      <trkpt lat="43.43844" lon="3.44137">
        <ele>39</ele>
        <time>2011-12-23T21:42:34Z</time>
      </trkpt>
      <trkpt lat="43.43806" lon="3.44108">
        <ele>40</ele>
        <time>2011-12-23T21:42:34Z</time>
      </trkpt>
      <trkpt lat="43.43779" lon="3.44102">
        <ele>42</ele>
        <time>2011-12-23T21:42:34Z</time>
      </trkpt>
      <trkpt lat="43.43728" lon="3.44085">
        <ele>46</ele>
        <time>2011-12-23T21:42:34Z</time>
      </trkpt>
      <trkpt lat="43.43645" lon="3.44081">
        <ele>50</ele>
        <time>2011-12-23T21:42:34Z</time>
      </trkpt>
      <trkpt lat="43.43614" lon="3.44049">
        <ele>52</ele>
        <time>2011-12-23T21:42:34Z</time>
      </trkpt>
      <trkpt lat="43.43605" lon="3.44034">
        <ele>52</ele>
        <time>2011-12-23T21:42:34Z</time>
      </trkpt>
      <trkpt lat="43.43574" lon="3.44014">
        <ele>52</ele>
        <time>2011-12-23T21:42:34Z</time>
      </trkpt>
      <trkpt lat="43.43558" lon="3.44011">
        <ele>52</ele>
        <time>2011-12-23T21:42:34Z</time>
      </trkpt>
      <trkpt lat="43.43536" lon="3.43955">
        <ele>51</ele>
        <time>2011-12-23T21:42:34Z</time>
      </trkpt>
      <trkpt lat="43.43507" lon="3.43958">
        <ele>50</ele>
        <time>2011-12-23T21:42:34Z</time>
      </trkpt>
      <trkpt lat="43.43493" lon="3.4396">
        <ele>49</ele>
        <time>2011-12-23T21:42:34Z</time>
      </trkpt>
      <trkpt lat="43.43489" lon="3.43982">
        <ele>48</ele>
        <time>2011-12-23T21:42:34Z</time>
      </trkpt>
      <trkpt lat="43.43466" lon="3.44003">
        <ele>45</ele>
        <time>2011-12-23T21:42:34Z</time>
      </trkpt>
      <trkpt lat="43.4347" lon="3.44019">
        <ele>45</ele>
        <time>2011-12-23T21:42:34Z</time>
      </trkpt>
      <trkpt lat="43.43454" lon="3.44034">
        <ele>43</ele>
        <time>2011-12-23T21:42:34Z</time>
      </trkpt>
    </trkseg>
  </trk>
</gpx>